sat.trackr.live / text

‹ back to catalog

ONEWEB-0242

NORAD 48772 · 2021-045F

PAYLOAD ACTIVE UNKNOWN

§ Identity

Operator
Country
UK
Launch date
2021-05-28
Launch site
VOSTO
Launch vehicle
Mass (kg)
RCS (m²)

Purposes: comms

External: N2YO · Heavens-Above · Gunter

§ Orbital elements

Epoch: 2026-09-19T17:41:40.821792Z

Period
109.46 min
Inclination
87.8994°
Eccentricity
0.0002119
Mean motion
13.15548422 rev/d
Perigee alt
1,200.2 km
Apogee alt
1,203.4 km
Semi-major
7,579.9 km
B*
-2.4255e-4
RAAN
240.3424°
Arg perigee
80.2373°
Mean anomaly
279.8997°
Rev number
25,685

§ Raw data

ONEWEB-02421 48772U 21045F   26262.73727803 -.00000078  00000+0 -24255-3 0  99922 48772  87.8994 240.3424 0002119  80.2373 279.8997 13.15548422256852

JSON: /api/v1/satellites/48772 · /tle

For live sub-satellite position, see the globe view (requires WebGL).

§ Visibility from observer

Set your observer location to see the next 7 days of passes ≥ 10°. The values pass through the URL so the page stays shareable.

No JS? Fill the form by hand. The geolocation button needs JavaScript.